Little Rock AFB, AR

6:35 AM CDT on October 21, 2017 (GMT -0500)
Little Rock Air Force Base

Weather History for KLRF - March, 2014

Change the Weather History Date:

Wednesday, March 5, 2014

  Actual Average Record
Temperature  
Mean Temperature 29 °F -  
Max Temperature 32 °F 60 °F 78 °F (1967)
Min Temperature 26 °F 36 °F 17 °F (1978)
Degree Days  
Heating Degree Days 36    
Moisture  
Dew Point 27 °F    
Average Humidity 92    
Maximum Humidity 100    
Minimum Humidity 80    
Precipitation  
Precipitation 0.00 in - - ()
Sea Level Pressure  
Sea Level Pressure 30.19 in    
Wind  
Wind Speed 3 mph (ENE)    
Max Wind Speed 8 mph    
Max Gust Speed -    
Visibility 8 miles    
Events      
Averages and records for this station are not official NWS values.
T = Trace of Precipitation, MM = Missing Value Source: NWS Daily Summary

Daily Weather History Graph

Daily Weather History Graph

Search for Another Location

Airport or City:

Trip Planner

Search our weather history database for the weather conditions in past years. The results will help you decide how hot, cold, wet, or windy it might be!

Date:

Astronomy

Mar. 05, 2014 Rise Set
Actual Time 6:32 AM CST 6:07 PM CST
Civil Twilight 6:07 AM CST 6:33 PM CST
Nautical Twilight 5:38 AM CST 7:02 PM CST
Astronomical Twilight 5:08 AM CST 7:31 PM CST
Moon 9:10 AM CST (3/5) 11:04 PM CST (3/5)
Length of Visible Light 12h 25m
Length of Day
11h 35m
Waxing Crescent, 23% of the Moon is Illuminated
Mar 5
Waxing Crescent
Mar 8
First Quarter
Mar 16
Full
Mar 23
Last Quarter
Mar 30
New

Hourly Weather History & Observations

Time (CST) Temp. Windchill Dew Point Humidity Pressure Visibility Wind Dir Wind Speed Gust Speed Precip Events Conditions
12:58 AM 26.6 °F - 24.6 °F 92% 30.17 in 10.0 mi Calm Calm - N/A   Overcast
1:18 AM 26.6 °F - 24.8 °F 93% 30.15 in 10.0 mi Variable 1.2 mph - N/A   Overcast
1:58 AM 27.0 °F - 24.6 °F 91% 30.16 in 10.0 mi NE 1.2 mph - N/A   Overcast
2:58 AM 27.1 °F - 24.8 °F 91% 30.17 in 10.0 mi Calm Calm - N/A   Overcast
3:28 AM 26.6 °F - 24.8 °F 93% 30.15 in 10.0 mi ENE 2.3 mph - N/A   Overcast
3:48 AM 26.6 °F 22.6 °F 24.8 °F 93% 30.15 in 10.0 mi ESE 3.5 mph - N/A   Overcast
3:53 AM 26.6 °F - 24.8 °F 93% 30.15 in 10.0 mi ESE 2.3 mph - N/A   Overcast
3:58 AM 27.1 °F 21.8 °F 24.8 °F 91% 30.16 in 10.0 mi East 4.6 mph - N/A   Overcast
4:58 AM 27.1 °F - 25.2 °F 92% 30.17 in 10.0 mi ESE 2.3 mph - N/A   Overcast
5:58 AM 27.1 °F - 25.2 °F 92% 30.19 in 10.0 mi Variable 1.2 mph - N/A   Overcast
6:08 AM 26.6 °F - 24.8 °F 93% 30.17 in 10.0 mi SE 2.3 mph - N/A   Overcast
6:58 AM 27.3 °F 23.4 °F 25.5 °F 93% 30.21 in 7.0 mi East 3.5 mph - N/A   Overcast
7:28 AM 26.6 °F 22.6 °F 24.8 °F 93% 30.23 in 6.0 mi East 3.5 mph - N/A   Overcast
7:33 AM 26.6 °F 20.0 °F 26.6 °F 100% 30.19 in 8.0 mi East 5.8 mph - N/A   Overcast
7:38 AM 26.6 °F 21.2 °F 26.6 °F 100% 30.19 in 8.0 mi East 4.6 mph - N/A   Overcast
7:58 AM 27.5 °F 22.2 °F 25.7 °F 93% 30.22 in 6.0 mi ENE 4.6 mph - N/A   Overcast
8:13 AM 26.6 °F - 24.8 °F 93% 30.21 in 9.0 mi ENE 2.3 mph - N/A   Overcast
8:34 AM 28.4 °F - 26.6 °F 93% 30.23 in 6.0 mi ENE 2.3 mph - N/A   Overcast
8:38 AM 28.4 °F 24.6 °F 26.6 °F 93% 30.23 in 6.0 mi NE 3.5 mph - N/A   Overcast
8:58 AM 27.3 °F 20.9 °F 25.7 °F 94% 30.23 in 1.5 mi NE 5.8 mph - N/A   Overcast
9:58 AM 27.3 °F 22.0 °F 26.1 °F 95% 30.25 in 1.5 mi East 4.6 mph - N/A   Overcast
10:38 AM 28.4 °F 21.2 °F 26.6 °F 93% 30.21 in 1.5 mi ENE 6.9 mph - N/A   Overcast
10:48 AM 28.4 °F 21.2 °F 26.6 °F 93% 30.21 in 1.5 mi NE 6.9 mph - N/A   Overcast
11:58 AM 28.6 °F 23.5 °F 25.9 °F 90% 30.21 in 1.5 mi NNE 4.6 mph - N/A   Overcast
12:18 PM 28.4 °F 23.3 °F 26.6 °F 93% 30.18 in 1.5 mi North 4.6 mph - N/A   Overcast
12:33 PM 30.2 °F 24.3 °F 26.6 °F 86% 30.17 in 1.5 mi ENE 5.8 mph - N/A   Overcast
12:58 PM 29.8 °F 24.9 °F 26.2 °F 86% 30.19 in 10.0 mi NNE 4.6 mph - N/A   Overcast
1:33 PM 32.0 °F - 26.6 °F 80% 30.16 in 10.0 mi ENE 2.3 mph - N/A   Overcast
1:58 PM 31.1 °F 26.4 °F 27.1 °F 85% 30.17 in 10.0 mi ENE 4.6 mph - N/A   Overcast
2:58 PM 32.2 °F 27.7 °F 28.6 °F 87% 30.16 in 10.0 mi East 4.6 mph - N/A   Overcast
3:23 PM 32.0 °F 27.5 °F 28.4 °F 87% 30.16 in 10.0 mi East 4.6 mph - N/A   Overcast
3:58 PM 32.2 °F - 28.8 °F 87% 30.18 in 10.0 mi Variable 2.3 mph - N/A   Overcast
4:58 PM 32.5 °F 29.3 °F 29.7 °F 89% 30.18 in 10.0 mi North 3.5 mph - N/A   Overcast
5:58 PM 32.9 °F 27.5 °F 30.2 °F 90% 30.18 in 10.0 mi NNE 5.8 mph - N/A   Overcast
6:58 PM 32.9 °F 27.5 °F 30.4 °F 90% 30.19 in 10.0 mi NE 5.8 mph - N/A   Overcast
7:58 PM 32.9 °F 25.9 °F 30.4 °F 90% 30.20 in 10.0 mi NE 8.1 mph - N/A   Overcast
8:11 PM 32.0 °F 25.6 °F 32.0 °F 100% 30.18 in 10.0 mi NE 6.9 mph - N/A   Overcast
8:58 PM 32.7 °F 25.7 °F 30.6 °F 92% 30.20 in 10.0 mi ENE 8.1 mph - N/A   Overcast
9:03 PM 32.0 °F 25.6 °F 32.0 °F 100% 30.18 in 10.0 mi ENE 6.9 mph - N/A   Overcast
9:58 PM 32.9 °F 26.7 °F 30.4 °F 90% 30.20 in 10.0 mi NNE 6.9 mph - N/A   Overcast
10:33 PM 32.0 °F 26.4 °F 32.0 °F 100% 30.17 in 10.0 mi NE 5.8 mph - N/A   Overcast
10:58 PM 32.9 °F 29.8 °F 30.6 °F 91% 30.20 in 10.0 mi NNE 3.5 mph - N/A   Overcast
11:28 PM 32.0 °F - 32.0 °F 100% 30.19 in 10.0 mi North 1.2 mph - N/A   Overcast
11:58 PM 32.9 °F - 31.1 °F 93% 30.21 in 9.0 mi NNW 2.3 mph - N/A   Overcast